Weather History for La Paz, Mexico

Change the Weather History Date:

Sunday, December 9, 2012

  Actual Average Record
Temperature  
Mean Temperature 70 °F -  
Max Temperature 82 °F 76 °F 87 °F (1996)
Min Temperature 59 °F 53 °F 48 °F (1998)
Cooling Degree Days 6    
Growing Degree Days 20 (Base 50)    
Moisture  
Dew Point 57 °F    
Average Humidity 62    
Maximum Humidity 88    
Minimum Humidity 42    
Precipitation  
Precipitation 0.00 in - - ()
Sea Level Pressure  
Sea Level Pressure 30.00 in    
Wind  
Wind Speed 4 mph ()    
Max Wind Speed 12 mph    
Max Gust Speed -    
Visibility 11.6 miles    
Events      
Averages and records for this station are not official NWS values.
T = Trace of Precipitation, MM = Missing Value Source: Averaged Metar Reports

Daily Weather History Graph

Daily Weather History Graph

Search for Another Location

Airport:

Trip Planner

Search our weather history database for the weather conditions in past years. The results will help you decide how hot, cold, wet, or windy it might be!

Date:

Astronomy

Dec. 09, 2012 Rise Set
Actual Time 6:53 AM MST 5:34 PM MST
Civil Twilight 6:28 AM MST 5:59 PM MST
Nautical Twilight 6:00 AM MST 6:27 PM MST
Astronomical Twilight 5:32 AM MST 6:55 PM MST
Moon 2:49 AM MST (12/9) 2:27 PM MST (12/9)
Length of Visible Light 11h 30m
Length of Day
10h 41m
Waning Crescent, 18% of the Moon is Illuminated
Dec 9
Waning Crescent
Dec 13
New
Dec 19
First Quarter
Dec 28
Full
Jan 4
Last Quarter

Hourly Weather History & Observations

Time (MST) Temp. Dew Point Humidity Pressure Visibility Wind Dir Wind Speed Gust Speed Precip Events Conditions
4:50 AM 60 °F 57 °F 85% 29.95 in 2 mi South 4.5 mph - -  
5:44 AM 57.2 °F 53.6 °F 88% 29.97 in 10.0 mi SSE 3.5 mph - N/A   Partly Cloudy
6:43 AM 57.2 °F 53.6 °F 88% 30.00 in 10.0 mi South 8.1 mph - N/A   Partly Cloudy
7:50 AM 65 °F 60 °F 77% 30.00 in 12 mi SE 4.5 mph - -  
7:51 AM 59.0 °F 55.4 °F 88% 30.07 in 10.0 mi South 4.6 mph - N/A   Clear
8:48 AM 68.0 °F 59.0 °F 73% 30.03 in 12.0 mi SSE 4.6 mph - N/A   Clear
9:50 AM 73.4 °F 55.4 °F 53% 30.04 in 12.0 mi WSW 3.5 mph - N/A   Clear
10:43 AM 75.2 °F 53.6 °F 47% 30.07 in 15.0 mi Calm Calm - N/A   Clear
10:50 AM 78 °F 61 °F 46% 30.01 in 19 mi South 2.2 mph - -  
11:43 AM 77.0 °F 53.6 °F 44% 29.99 in 15.0 mi NW 6.9 mph - N/A   Clear
12:41 PM 78.8 °F 53.6 °F 42% 29.96 in 15.0 mi North 3.5 mph - N/A   Scattered Clouds
1:44 PM 77.0 °F 55.4 °F 47% 29.99 in 15.0 mi North 11.5 mph - N/A   Mostly Cloudy
1:50 PM 80 °F 61 °F 42% 29.94 in 19 mi North 6.7 mph - -   Clear
2:48 PM 78.8 °F 55.4 °F 44% 29.93 in 15.0 mi North 5.8 mph - N/A   Mostly Cloudy
3:40 PM 78.8 °F 55.4 °F 44% 29.93 in 15.0 mi North 9.2 mph - N/A   Mostly Cloudy
4:50 PM 80 °F 63 °F 46% 29.94 in 19 mi NW 4.5 mph - -   Clear
4:53 PM 77.0 °F 55.4 °F 47% 30.04 in 10.0 mi NNW 6.9 mph - N/A   Mostly Cloudy
5:40 PM 73.4 °F 57.2 °F 57% 29.96 in 10.0 mi West 5.8 mph - N/A   Mostly Cloudy
6:49 PM 71.6 °F 57.2 °F 60% 29.98 in 10.0 mi West 5.8 mph - N/A   Mostly Cloudy
7:50 PM 72 °F 65 °F 72% 29.99 in 2 mi WSW 4.5 mph - -  
7:51 PM 68.0 °F 57.2 °F 68% 30.10 in 10.0 mi Calm Calm - N/A   Mostly Cloudy
8:50 PM 66.2 °F 57.2 °F 73% 30.02 in 10.0 mi SE 5.8 mph - N/A   Scattered Clouds
9:40 PM 64.4 °F 57.2 °F 77% 30.02 in 10.0 mi SE 5.8 mph - N/A   Scattered Clouds
10:45 PM 69 °F 64 °F 77% 29.99 in 2 mi SE 2.2 mph - -  
10:51 PM 62.6 °F 55.4 °F 77% 30.14 in 10.0 mi Calm Calm - N/A   Scattered Clouds